Weather History for Tappahannock, VA

Change the Weather History Date:

Saturday, December 21, 2013

  Actual Average (KRIC) Record (KRIC)
Temperature  
Mean Temperature 64 °F 40 °F  
Max Temperature 72 °F 49 °F 73 °F (1956)
Min Temperature 55 °F 30 °F -1 °F (1942)
Degree Days  
Heating Degree Days 2 25  
Month to date heating degree days 481  
Since 1 July heating degree days 1157  
Cooling Degree Days 0 0  
Month to date cooling degree days 0  
Year to date cooling degree days 1548  
Growing Degree Days 14 (Base 50)    
Moisture  
Dew Point 50 °F    
Average Humidity 61    
Maximum Humidity 76    
Minimum Humidity 46    
Precipitation  
Precipitation 0.00 in 0.11 in 1.23 in (1926)
Month to date precipitation 2.27  
Year to date precipitation 42.61  
Snow  
Snow 0.00 in 0.10 in 7.20 in (1900)
Month to date snowfall 1.3  
Since 1 July snowfall 1.5  
Snow Depth -    
Sea Level Pressure  
Sea Level Pressure 30.04 in    
Wind  
Wind Speed 9 mph (South)    
Max Wind Speed 15 mph    
Max Gust Speed 23 mph    
Visibility 10 miles    
Events      
T = Trace of Precipitation, MM = Missing Value Source: NWS Daily Summary

Daily Weather History Graph

Daily Weather History Graph

Search for Another Location

Airport:

Trip Planner

Search our weather history database for the weather conditions in past years. The results will help you decide how hot, cold, wet, or windy it might be!

Date:

Astronomy

Dec. 21, 2013 Rise Set
Actual Time 7:19 AM EST 4:52 PM EST
Civil Twilight 6:50 AM EST 5:21 PM EST
Nautical Twilight 6:17 AM EST 5:54 PM EST
Astronomical Twilight 5:45 AM EST 6:26 PM EST
Moon 9:02 PM EST (12/21) 9:48 AM EST (12/21)
Length of Visible Light 10h 31m
Length of Day
9h 32m
Waning Gibbous, 84% of the Moon is Illuminated
Dec 21
Waning Gibbous
Dec 25
Last Quarter
Jan 1
New
Jan 7
First Quarter
Jan 15
Full

Hourly Weather History & Observations

Time (EST) Temp. Dew Point Humidity Pressure Visibility Wind Dir Wind Speed Gust Speed Precip Events Conditions
12:15 AM 58.3 °F 45.5 °F 62% 30.09 in 10.0 mi South 9.2 mph - N/A   Clear
12:35 AM 58.1 °F 45.7 °F 63% 30.08 in 10.0 mi South 5.8 mph - N/A   Clear
12:55 AM 58.1 °F 45.9 °F 64% 30.08 in 10.0 mi South 6.9 mph - N/A   Clear
1:15 AM 58.1 °F 45.7 °F 63% 30.07 in 10.0 mi SSW 9.2 mph - N/A   Clear
1:35 AM 58.1 °F 45.5 °F 63% 30.07 in 10.0 mi South 8.1 mph - N/A   Clear
1:55 AM 57.6 °F 45.5 °F 64% 30.07 in 10.0 mi South 9.2 mph - N/A   Clear
2:15 AM 57.6 °F 45.1 °F 63% 30.08 in 10.0 mi SSW 8.1 mph - N/A   Clear
2:35 AM 57.4 °F 45.5 °F 65% 30.08 in 10.0 mi SSW 6.9 mph - N/A   Clear
2:55 AM 57.2 °F 45.5 °F 65% 30.08 in 10.0 mi SSW 9.2 mph - N/A   Clear
3:15 AM 57.2 °F 45.5 °F 65% 30.07 in 10.0 mi SSW 6.9 mph - N/A   Clear
3:35 AM 57.2 °F 45.7 °F 65% 30.06 in 10.0 mi South 8.1 mph - N/A   Clear
3:55 AM 57.2 °F 45.9 °F 66% 30.06 in 10.0 mi SSW 8.1 mph - N/A   Clear
4:15 AM 56.7 °F 46.2 °F 68% 30.06 in 10.0 mi South 6.9 mph - N/A   Clear
4:35 AM 56.8 °F 46.4 °F 68% 30.07 in 10.0 mi South 6.9 mph - N/A   Clear
4:55 AM 57.0 °F 46.6 °F 68% 30.06 in 10.0 mi South 6.9 mph - N/A   Clear
5:15 AM 56.7 °F 46.4 °F 69% 30.06 in 10.0 mi South 8.1 mph - N/A   Clear
5:35 AM 56.5 °F 46.0 °F 68% 30.07 in 10.0 mi South 9.2 mph - N/A   Clear
5:55 AM 56.3 °F 45.7 °F 68% 30.07 in 10.0 mi South 8.1 mph - N/A   Scattered Clouds
6:15 AM 56.5 °F 45.5 °F 67% 30.08 in 10.0 mi South 8.1 mph - N/A   Mostly Cloudy
6:35 AM 56.8 °F 45.5 °F 66% 30.08 in 10.0 mi South 8.1 mph - N/A   Overcast
6:55 AM 56.7 °F 45.5 °F 66% 30.08 in 10.0 mi South 5.8 mph - N/A   Mostly Cloudy
7:15 AM 55.8 °F 45.1 °F 67% 30.08 in 10.0 mi South 6.9 mph - N/A   Scattered Clouds
7:35 AM 55.8 °F 45.5 °F 68% 30.08 in 10.0 mi South 8.1 mph - N/A   Clear
7:55 AM 56.3 °F 45.5 °F 67% 30.08 in 10.0 mi South 8.1 mph - N/A   Mostly Cloudy
8:15 AM 56.8 °F 45.5 °F 66% 30.08 in 10.0 mi South 8.1 mph - N/A   Scattered Clouds
8:35 AM 57.4 °F 45.5 °F 65% 30.08 in 10.0 mi South 8.1 mph - N/A   Clear
8:55 AM 58.5 °F 45.9 °F 63% 30.09 in 10.0 mi SSW 8.1 mph - N/A   Clear
9:15 AM 59.2 °F 45.9 °F 61% 30.10 in 10.0 mi SSW 9.2 mph - N/A   Clear
9:35 AM 59.7 °F 46.2 °F 61% 30.10 in 10.0 mi SSW 9.2 mph - N/A   Clear
9:55 AM 62.4 °F 46.2 °F 55% 30.10 in 10.0 mi SSW 8.1 mph 16.1 mph N/A   Scattered Clouds
10:15 AM 63.9 °F 46.0 °F 52% 30.10 in 10.0 mi SSW 11.5 mph 16.1 mph N/A   Clear
10:35 AM 65.7 °F 46.0 °F 49% 30.08 in 10.0 mi SSW 11.5 mph 19.6 mph N/A   Clear
10:55 AM 66.7 °F 46.4 °F 48% 30.08 in 10.0 mi SSW 10.4 mph 17.3 mph N/A   Clear
11:15 AM 67.6 °F 46.6 °F 47% 30.07 in 10.0 mi South 11.5 mph 20.7 mph N/A   Clear
11:35 AM 67.6 °F 46.8 °F 47% 30.06 in 10.0 mi South 13.8 mph 19.6 mph N/A   Clear
11:55 AM 68.0 °F 47.3 °F 47% 30.05 in 10.0 mi South 11.5 mph 19.6 mph N/A   Clear
12:15 PM 67.8 °F 47.7 °F 48% 30.04 in 10.0 mi South 13.8 mph 20.7 mph N/A   Clear
12:35 PM 68.2 °F 48.0 °F 48% 30.03 in 10.0 mi South 12.7 mph 19.6 mph N/A   Clear
12:55 PM 68.5 °F 48.2 °F 48% 30.02 in 10.0 mi South 13.8 mph 18.4 mph N/A   Clear
1:15 PM 69.6 °F 48.2 °F 46% 30.01 in 10.0 mi South 15.0 mph 21.9 mph N/A   Clear
1:35 PM 70.2 °F 48.6 °F 46% 30.01 in 10.0 mi South 13.8 mph 21.9 mph N/A   Clear
1:55 PM 70.7 °F 49.1 °F 46% 29.99 in 10.0 mi South 11.5 mph 18.4 mph N/A   Clear
2:15 PM 70.7 °F 49.5 °F 47% 29.99 in 10.0 mi South 11.5 mph 21.9 mph N/A   Clear
2:35 PM 71.6 °F 49.6 °F 46% 29.99 in 10.0 mi SSW 11.5 mph 23.0 mph N/A   Clear
2:55 PM 72.0 °F 50.0 °F 46% 29.99 in 10.0 mi SSW 13.8 mph 18.4 mph N/A   Clear
3:15 PM 71.1 °F 50.4 °F 48% 30.00 in 10.0 mi South 11.5 mph 21.9 mph N/A   Clear
3:35 PM 70.7 °F 50.9 °F 49% 30.00 in 10.0 mi South 12.7 mph 21.9 mph N/A   Clear
3:55 PM 69.8 °F 51.3 °F 52% 30.00 in 10.0 mi South 6.9 mph - N/A   Clear
4:15 PM 69.4 °F 51.6 °F 53% 30.00 in 10.0 mi SSW 8.1 mph - N/A   Clear
4:35 PM 69.1 °F 51.8 °F 54% 30.01 in 10.0 mi South 4.6 mph - N/A   Clear
4:55 PM 68.4 °F 52.0 °F 56% 30.00 in 10.0 mi South 5.8 mph - N/A   Clear
5:15 PM 68.0 °F 52.2 °F 57% 30.00 in 10.0 mi South 5.8 mph - N/A   Clear
5:35 PM 68.2 °F 52.3 °F 57% 30.01 in 10.0 mi SSW 8.1 mph - N/A   Clear
5:55 PM 68.0 °F 52.7 °F 58% 30.01 in 10.0 mi South 8.1 mph - N/A   Clear
6:15 PM 67.1 °F 52.7 °F 60% 30.01 in 10.0 mi South 9.2 mph - N/A   Clear
6:35 PM 67.1 °F 52.9 °F 60% 30.01 in 10.0 mi South 10.4 mph 17.3 mph N/A   Clear
6:55 PM 67.1 °F 53.2 °F 61% 30.01 in 10.0 mi South 11.5 mph 16.1 mph N/A   Clear
7:15 PM 67.5 °F 53.6 °F 61% 30.02 in 10.0 mi South 11.5 mph 19.6 mph N/A   Clear
7:35 PM 67.5 °F 54.1 °F 62% 30.02 in 10.0 mi South 11.5 mph 18.4 mph N/A   Scattered Clouds
7:55 PM 67.6 °F 54.7 °F 63% 30.01 in 10.0 mi South 9.2 mph 17.3 mph N/A   Clear
8:15 PM 67.6 °F 55.4 °F 65% 30.01 in 10.0 mi South 10.4 mph 20.7 mph N/A   Clear
8:35 PM 67.6 °F 55.8 °F 66% 30.01 in 10.0 mi South 12.7 mph 16.1 mph N/A   Clear
8:55 PM 67.5 °F 56.3 °F 67% 30.01 in 10.0 mi South 10.4 mph 16.1 mph N/A   Clear
9:15 PM 67.5 °F 56.8 °F 69% 30.01 in 10.0 mi South 8.1 mph 17.3 mph N/A   Clear
9:35 PM 67.3 °F 57.2 °F 70% 30.01 in 10.0 mi South 8.1 mph 17.3 mph N/A   Clear
9:55 PM 67.3 °F 57.7 °F 71% 30.02 in 10.0 mi South 9.2 mph - N/A   Clear
10:15 PM 67.1 °F 58.1 °F 73% 30.01 in 10.0 mi South 11.5 mph - N/A   Clear
10:35 PM 67.1 °F 58.5 °F 74% 30.01 in 10.0 mi South 10.4 mph - N/A   Clear
10:55 PM 67.1 °F 58.5 °F 74% 29.99 in 10.0 mi South 10.4 mph - N/A   Clear
11:15 PM 66.9 °F 59.0 °F 76% 29.99 in 10.0 mi South 10.4 mph - N/A   Clear
11:35 PM 66.9 °F 59.0 °F 76% 29.99 in 10.0 mi South 9.2 mph 17.3 mph N/A   Clear
11:55 PM 67.1 °F 59.2 °F 76% 29.99 in 10.0 mi South 11.5 mph - N/A   Clear